Wind_Speed
20 20 21 22 25 27 27 27 26 25 24 23 22 21 23 24 24 24 23 24 26 27 28 28 29 30 34 37 37 38 39 38 36 34 34 34 32 31 30 30 30 28 26
21 23 23 24 24 26 28 28 27 25 24 23 24 23 25 26 27 27 26 26 24 27 29 29 30 29 34 38 40 39 41 41 39 37 36 35 34 32 32 32 31 31 30
21 21 22 24 25 26 26 25 26 25 26 25 26 25 27 27 28 29 31 29 30 28 28 29 30 31 31 38 42 41 42 44 42 40 39 37 35 33 33 35 34 35 35
20 21 22 24 26 26 24 23 23 26 23 24 27 30 26 26 27 28 30 32 31 28 30 32 31 30 30 33 41 43 42 46 45 43 41 39 36 35 34 35 38 36 34
20 21 21 24 25 25 23 20 20 20 23 24 24 24 25 28 31 31 29 29 33 31 28 27 29 31 30 31 39 45 44 46 47 46 44 42 39 37 35 37 41 37 35
21 21 21 21 22 24 21 22 21 22 22 24 26 29 25 27 27 25 26 25 23 29 31 30 30 31 30 30 33 44 44 45 48 49 48 46 42 40 38 40 43 42 36
23 25 23 22 23 21 20 21 20 19 21 23 23 24 21 18 10 13 16 15 15 17 22 28 30 31 35 36 33 36 44 45 48 52 52 50 46 44 41 41 44 48 43
22 20 24 24 22 22 22 23 21 21 15 21 13 20 5 6 14 24 11 14 16 19 17 16 17 22 28 32 36 34 41 48 49 52 54 52 49 47 45 42 43 45 45
21 20 23 23 22 21 20 21 21 19 17 20 17 7 4 4 11 8 25 15 27 27 20 17 17 20 19 28 32 33 34 37 51 49 48 51 50 48 47 45 45 45 44
21 21 20 22 20 20 22 20 20 19 20 18 18 9 19 16 3 6 9 29 22 21 25 28 29 25 26 18 21 30 32 31 35 37 29 43 46 49 49 47 46 47 48
19 20 19 19 21 19 20 20 22 21 21 15 18 18 18 17 19 5 9 10 22 19 24 28 30 24 24 21 13 12 26 31 30 26 23 38 31 34 48 49 49 47 47
18 19 20 21 20 20 20 19 19 18 20 20 21 18 14 8 11 8 5 9 11 19 23 24 13 16 15 17 15 14 16 26 30 29 28 44 47 34 42 49 50 50 49
20 20 20 20 20 19 16 19 21 20 21 20 24 22 17 13 13 14 13 9 5 11 11 7 10 14 15 15 16 14 12 12 20 25 33 40 39 37 45 47 49 52 52
18 19 20 19 18 19 19 19 22 24 24 25 25 26 21 18 14 12 10 11 6 3 8 6 15 18 18 17 17 17 20 14 12 16 24 28 37 33 42 43 46 50 54
15 21 22 21 19 20 22 23 24 25 23 25 26 28 25 25 21 15 12 10 7 3 3 14 11 21 21 22 21 22 26 29 20 4 19 21 36 31 30 28 39 52 52
17 21 24 23 22 22 23 25 27 26 27 27 25 29 30 29 24 21 17 12 10 7 3 15 16 20 23 21 23 24 27 33 40 34 21 10 7 14 18 24 14 27 42
16 21 24 25 25 24 24 26 28 28 29 29 28 30 30 30 28 26 23 20 17 13 3 12 19 24 28 25 25 26 29 32 36 36 38 39 37 30 20 12 7 17 10
15 16 22 25 24 25 25 27 29 28 29 29 28 29 33 31 32 32 27 25 22 25 16 12 20 21 28 25 26 26 26 30 33 34 38 39 41 42 42 35 28 16 12
15 15 18 21 24 22 25 27 27 27 29 31 31 33 30 32 33 32 31 29 26 23 23 17 15 21 21 30 24 27 29 28 28 28 31 34 38 36 38 38 36 37 33
15 16 16 18 20 21 22 26 27 28 30 30 30 31 31 32 32 31 33 31 29 27 24 21 19 17 18 27 26 21 24 30 31 32 30 28 30 34 35 34 36 34 32
13 15 16 16 17 18 19 22 26 30 30 29 30 28 27 26 28 31 31 33 31 27 26 24 22 21 20 20 22 21 16 12 28 31 30 34 36 35 35 36 33 31 31
16 18 18 18 18 18 16 17 22 25 27 30 27 27 25 25 24 26 28 31 33 30 27 23 22 22 24 20 20 21 20 14 4 23 21 28 30 34 33 32 28 27 26
15 18 18 19 19 17 15 17 18 21 23 22 26 24 25 25 24 22 22 24 30 30 32 26 24 25 24 22 18 17 21 20 14 21 16 15 21 28 27 28 26 30 25
15 15 16 17 17 16 14 15 15 22 22 21 20 26 25 26 25 22 22 24 26 27 28 26 27 26 28 26 16 14 11 13 21 24 15 9 19 15 23 24 25 26 26
13 13 15 15 17 15 13 13 15 19 21 23 23 23 26 27 25 23 24 25 27 27 21 23 22 23 25 29 28 24 24 16 9 13 27 11 18 9 11 24 24 23 22
10 10 12 13 14 16 14 15 16 17 20 20 21 22 21 24 25 25 27 24 26 27 27 28 29 29 29 29 31 31 25 18 10 8 25 8 20 14 5 12 19 26 22
Wind_Direction
0 354 351 348 345 341 338 333 329 326 321 314 305 296 287 279 276 276 271 279 278 276 271 267 261 251 240 238 240 236 231 229 225 220 219 221 219 220 216 213 214 209 210
356 351 348 345 341 340 337 333 331 327 323 318 310 302 291 285 279 274 273 269 277 278 273 270 264 259 245 242 237 239 234 231 228 224 220 221 223 221 218 215 214 211 210
357 354 351 347 345 343 339 336 333 327 323 320 314 310 302 294 286 278 271 271 267 267 273 270 267 264 253 243 240 237 236 232 230 226 223 221 222 222 220 219 215 211 213
9 4 0 356 349 346 344 341 337 335 329 325 320 317 312 305 297 285 277 270 268 271 274 274 271 269 259 246 239 237 238 232 230 228 225 223 222 220 221 218 215 214 215
14 9 3 357 352 355 356 346 341 334 325 321 317 311 303 298 293 290 284 278 269 265 267 272 275 273 267 256 243 236 239 236 231 230 227 224 222 219 218 217 212 213 216
18 14 10 4 0 360 355 348 340 337 327 318 317 310 309 298 296 291 291 285 280 270 269 271 273 277 275 266 250 238 238 240 236 231 229 226 222 220 217 215 213 211 212
25 21 14 12 10 0 349 347 342 339 334 332 328 326 316 316 314 339 325 304 304 302 287 281 280 278 276 273 266 244 235 236 236 234 230 228 224 221 218 216 216 217 220
28 19 20 17 9 4 358 354 350 342 337 336 320 310 333 344 354 338 19 357 4 357 344 331 308 291 275 270 271 264 244 239 236 234 231 228 226 223 220 219 218 220 218
30 29 20 17 12 10 2 358 354 352 335 334 341 308 327 325 342 323 325 350 339 342 345 346 345 349 320 273 267 270 265 251 242 238 227 228 229 228 225 222 220 221 223
31 32 30 17 17 14 7 5 356 0 352 338 345 335 325 309 312 314 318 317 329 334 336 324 322 328 341 327 279 266 268 260 255 235 253 224 233 232 232 227 227 224 226
30 31 33 27 23 24 12 7 9 9 6 348 343 338 326 319 281 292 302 344 330 329 325 317 325 314 328 339 329 308 264 259 256 251 231 198 216 236 239 233 232 231 229
31 29 30 31 26 29 21 12 15 17 9 5 357 347 336 321 321 315 310 317 304 311 312 314 318 337 349 344 342 307 289 253 248 233 250 218 225 242 243 240 237 234 233
33 31 30 28 29 30 31 24 28 24 17 9 4 353 343 333 323 309 300 300 304 307 291 304 11 11 11 7 359 354 326 271 252 255 234 229 226 227 240 237 241 239 236
42 42 40 39 37 38 38 39 40 33 27 30 11 3 353 351 342 327 312 318 304 281 286 351 32 37 28 29 36 34 29 12 275 254 243 239 234 247 241 242 245 244 240
51 52 47 44 43 45 46 46 45 42 26 26 19 13 8 3 0 350 341 326 307 304 354 32 23 29 41 43 44 49 47 45 43 317 249 247 243 252 248 255 260 250 247
59 57 53 48 48 48 49 48 47 46 41 26 20 22 20 11 8 12 8 3 356 322 298 28 28 37 44 48 45 56 53 55 51 56 72 102 188 228 243 244 270 252 246
64 61 59 52 51 51 52 53 50 46 43 35 27 27 24 21 19 14 15 18 18 5 293 40 38 37 43 39 47 51 52 52 52 51 57 61 69 72 91 100 273 269 290
69 66 61 56 52 54 54 57 56 50 44 36 31 33 29 24 26 24 19 17 24 40 50 44 26 20 31 44 51 58 52 51 53 49 50 53 58 61 61 68 64 74 88
75 71 65 57 50 54 60 59 59 54 52 46 42 38 31 32 30 26 27 25 24 36 51 58 39 33 34 41 29 45 58 58 50 47 50 53 55 57 56 57 60 61 69
86 78 75 64 53 47 56 63 61 58 55 50 48 44 39 38 36 32 33 31 29 33 33 40 40 37 36 25 37 24 36 47 51 51 53 45 47 48 50 52 53 53 57
87 83 80 74 61 52 46 56 62 58 54 52 46 45 41 42 42 42 40 38 38 37 36 34 33 33 29 24 21 16 19 27 47 45 44 47 46 43 40 46 48 48 50
86 79 71 68 60 54 49 50 57 55 54 50 44 41 40 38 43 45 47 47 46 44 40 39 35 28 23 10 24 39 36 22 1 26 30 43 45 50 44 43 40 48 51
91 83 74 64 63 58 54 51 52 52 50 49 48 43 41 38 43 42 47 50 49 49 51 45 40 30 24 16 26 30 59 56 30 20 35 27 43 46 51 43 38 43 59
91 85 81 77 68 58 55 52 52 59 57 49 50 48 46 41 39 45 46 47 47 45 44 46 46 42 37 29 45 35 35 65 44 33 41 41 18 41 48 50 35 41 42
94 84 81 77 74 65 53 52 59 64 61 59 56 49 48 46 41 45 50 46 47 46 45 48 49 45 44 40 47 52 37 36 49 23 25 22 1 2 40 43 42 34 35
99 91 82 80 76 73 57 54 61 65 64 63 61 57 50 47 44 43 50 48 47 44 48 51 52 52 51 48 49 53 47 44 35 18 5 29 10 15 350 36 25 24 26
Height
795 793 790 788 787 785 782 779 775 772 770 767 766 764 762 761 761 760 759 759 760 760 760 761 763 765 766 768 771 773 775 777 779 781 784 787 789 792 795 798 802 806 809
797 794 790 786 783 782 781 778 773 769 767 765 761 760 757 756 754 754 753 753 753 754 754 755 756 758 760 761 763 767 770 772 774 777 779 782 785 788 791 795 798 802 806
796 794 791 788 784 780 777 775 772 768 763 760 758 755 752 751 749 748 747 746 746 746 748 749 750 751 753 754 757 759 763 766 769 771 774 776 780 783 787 791 794 798 802
796 794 791 788 785 781 777 773 770 766 762 758 753 749 747 745 744 742 741 740 740 741 741 742 743 744 746 748 750 753 755 758 762 765 767 770 773 777 781 784 789 794 798
797 795 792 789 785 779 777 773 769 769 763 756 751 747 744 741 737 735 734 734 734 736 736 736 736 737 738 740 743 745 749 750 754 757 760 762 766 769 773 778 782 787 792
799 795 792 789 785 781 776 774 771 767 765 758 749 742 737 734 731 730 729 727 728 730 731 731 731 730 730 732 734 738 741 745 746 749 752 755 758 762 766 771 775 780 784
799 796 793 789 785 782 779 776 773 765 763 759 750 740 731 726 728 729 726 725 724 725 726 726 726 725 724 724 726 729 733 736 739 739 742 746 750 754 759 764 769 773 778
800 798 795 791 787 782 780 777 773 770 762 762 757 748 734 729 728 727 727 727 725 723 723 722 721 719 718 718 718 722 724 727 728 730 733 738 744 749 752 757 763 768 771
801 798 797 794 789 786 782 778 775 772 767 764 760 759 747 739 736 727 725 726 725 723 721 720 717 715 714 713 713 713 716 718 721 722 721 732 739 745 748 750 755 762 768
803 799 798 796 791 788 785 780 779 772 772 766 761 758 757 753 743 732 728 726 725 723 720 716 714 713 711 709 708 708 707 710 712 716 715 714 730 738 744 746 749 752 760
806 802 800 798 792 790 787 784 776 775 773 769 765 760 755 750 745 740 728 726 725 723 720 717 714 711 709 710 704 702 702 704 705 708 711 709 721 728 736 740 744 747 751
807 805 801 796 795 790 788 784 779 776 773 769 765 762 759 756 749 746 738 732 727 721 717 714 712 711 709 708 703 699 699 698 700 704 709 709 714 719 728 732 735 739 743
809 805 802 799 796 793 790 787 782 777 774 770 767 763 760 756 752 748 742 735 727 722 714 712 713 711 709 707 704 699 696 693 693 693 699 704 708 707 714 722 726 729 735
813 808 805 802 800 796 792 788 783 779 776 772 769 765 760 755 751 748 745 739 732 723 714 715 714 712 711 709 707 702 697 693 689 690 691 695 702 706 709 713 718 723 723
816 811 808 805 802 798 794 789 785 781 780 776 772 767 761 755 752 749 744 742 738 725 716 718 718 716 715 713 711 704 701 698 691 688 689 691 695 698 700 705 710 713 717
817 813 810 808 804 800 796 792 788 786 783 780 775 769 765 760 755 750 746 742 737 734 725 725 725 722 719 718 716 712 709 704 700 696 691 688 689 692 696 702 702 701 706
820 816 813 811 807 803 799 796 792 791 788 784 779 774 770 765 759 753 748 744 738 732 727 730 728 727 723 722 721 719 716 712 709 708 704 699 693 694 694 694 693 694 699
821 819 816 814 811 807 804 799 797 797 794 788 785 779 775 770 764 759 753 749 744 737 733 734 734 731 730 728 728 724 721 720 715 715 709 705 701 699 693 687 694 692 693
824 822 820 817 815 812 808 805 803 801 797 793 788 785 781 776 771 766 761 755 751 747 743 741 742 738 736 733 732 731 727 725 724 723 720 718 713 712 710 705 705 702 694
826 825 823 822 819 817 813 809 807 804 800 797 794 790 788 783 779 774 768 762 759 755 751 749 747 744 742 741 739 738 736 734 730 728 727 725 722 719 718 716 710 712 713
829 827 826 824 822 820 817 814 811 807 804 801 799 796 794 790 786 783 777 772 766 763 761 759 756 754 750 749 747 747 743 742 740 737 735 730 726 725 723 719 717 717 716
831 830 829 827 824 823 822 819 815 812 809 806 803 802 799 795 792 789 785 781 776 772 770 769 767 764 760 759 754 751 750 747 746 745 744 741 738 736 735 731 732 729 728
834 832 831 829 827 827 825 823 820 817 814 812 809 807 803 801 797 794 790 787 784 781 778 777 774 772 768 764 759 757 756 754 759 754 750 750 748 746 743 742 741 737 737
835 834 833 831 830 830 829 826 824 821 819 817 815 812 809 807 803 799 796 793 789 788 785 783 782 779 775 770 764 762 761 757 760 760 756 756 755 754 754 747 746 742 741
838 837 836 834 833 833 831 829 826 824 822 821 819 817 814 812 810 805 800 797 794 792 792 789 787 783 778 775 768 764 762 760 766 768 762 759 759 756 756 751 750 749 750
840 839 838 837 836 835 834 833 830 828 826 825 823 821 819 817 814 810 805 803 800 799 795 791 788 785 782 778 774 770 771 770 770 770 769 766 762 758 756 753 755 755 751